GW1859 Weather Reports


time (UTC)temp
F
wind
direction
speed
knots
gust
knots
rain 1hr
in
rain 24hr
in
rain mn
in
humidity
%
barometer
mb
20260906045708 83 326 0.9 0.9 0.00 0.00 0.00 52 1015.1
20260906045202 83 333 0.0 0.9 0.00 0.00 0.00 51 1015.3
20260906044659 84 329 0.0 0.9 0.00 0.00 0.00 51 1015.2
20260906044154 84 345 0.0 0.9 0.00 0.00 0.00 51 1015.1
20260906043650 84 333 0.0 0.9 0.00 0.00 0.00 51 1015.0
20260906043146 84 343 0.0 0.9 0.00 0.00 0.00 51 1015.1
20260906042645 84 25 0.0 0.9 0.00 0.00 0.00 51 1015.0
20260906042145 83 329 0.0 1.7 0.00 0.00 0.00 52 1015.2
20260906041641 83 311 1.7 1.7 0.00 0.00 0.00 52 1015.2
20260906041136 83 353 0.0 0.9 0.00 0.00 0.00 53 1015.2
20260906040631 83 320 0.0 1.7 0.00 0.00 0.00 52 1015.2
20260906040127 83 333 0.0 1.7 0.00 0.00 0.00 52 1015.2
20260906035622 84 342 0.9 0.9 0.00 0.00 0.00 52 1015.3
20260906035117 84 333 0.0 1.7 0.00 0.00 0.00 51 1015.1
20260906034617 84 352 0.0 0.9 0.00 0.00 0.00 51 1015.1
20260906034112 84 44 0.0 0.9 0.00 0.00 0.00 50 1015.0
20260906033608 84 321 0.0 0.9 0.00 0.00 0.00 50 1015.1
20260906033103 84 25 0.0 0.9 0.00 0.00 0.00 50 1015.1
20260906032600 85 333 0.0 0.9 0.00 0.00 0.00 50 1015.2
20260906032059 85 333 0.0 0.9 0.00 0.00 0.00 50 1015.2
20260906031555 85 320 0.0 0.9 0.00 0.00 0.00 50 1014.9
20260906031050 85 310 0.0 0.9 0.00 0.00 0.00 49 1014.9
20260906030549 86 333 0.0 0.9 0.00 0.00 0.00 49 1015.1
20260906030049 86 352 0.0 0.9 0.00 0.00 0.00 48 1014.8
20260906025549 87 293 0.0 0.9 0.00 0.00 0.00 47 1014.9
20260906025048 87 326 0.0 0.9 0.00 0.00 0.00 47 1014.9
20260906024544 87 339 0.0 1.7 0.00 0.00 0.00 47 1014.9
20260906024044 87 334 0.9 1.7 0.00 0.00 0.00 47 1014.6
20260906023540 87 27 1.7 1.7 0.00 0.00 0.00 47 1014.5
20260906023040 86 328 0.0 1.7 0.00 0.00 0.00 48 1014.6
20260906022535 86 325 1.7 1.7 0.00 0.00 0.00 48 1014.3
20260906022030 86 313 0.0 0.9 0.00 0.00 0.00 49 1014.5
20260906021526 85 25 0.0 0.9 0.00 0.00 0.00 49 1014.5
20260906021025 85 306 0.0 0.9 0.00 0.00 0.00 50 1014.2
20260906020525 85 326 0.0 0.0 0.00 0.00 0.00 50 1014.2
20260906020024 86 299 0.0 0.9 0.00 0.00 0.00 49 1014.2
20260906015524 86 310 0.0 0.9 0.00 0.00 0.00 49 1014.6
20260906015024 86 343 0.0 0.0 0.00 0.00 0.00 49 1014.2
20260906014519 86 307 0.0 0.9 0.00 0.00 0.00 48 1014.3
20260906014015 87 331 0.0 0.9 0.00 0.00 0.00 48 1014.1
20260906013509 87 329 0.9 1.7 0.00 0.00 0.00 47 1014.1
20260906013005 88 304 0.9 1.7 0.00 0.00 0.00 46 1013.9
20260906012500 88 312 0.9 0.9 0.00 0.00 0.00 45 1013.8
20260906011959 89 316 0.9 1.7 0.00 0.00 0.00 44 1013.7
20260906011455 89 304 0.9 0.9 0.00 0.00 0.00 44 1013.5
20260906010950 90 335 0.9 0.9 0.00 0.00 0.00 43 1013.9
20260906010446 90 331 0.9 1.7 0.00 0.00 0.00 42 1013.4
20260906005942 91 336 0.0 0.9 0.00 0.00 0.00 42 1013.7
20260906005441 91 322 0.0 0.9 0.00 0.00 0.00 41 1013.5
20260906004940 92 55 0.0 1.7 0.00 0.00 0.00 40 1013.5
20260906004440 92 318 0.9 0.9 0.00 0.00 0.00 40 1013.5
20260906003936 93 22 0.0 0.9 0.00 0.00 0.00 39 1013.5
20260906003435 93 12 0.0 0.9 0.00 0.00 0.00 39 1013.3
20260906002931 94 322 0.0 0.9 0.00 0.00 0.00 38 1013.4
20260906002430 94 354 0.0 0.9 0.00 0.00 0.00 38 1013.4
20260906001926 94 325 0.0 0.9 0.00 0.00 0.00 37 1013.7
20260906001422 95 322 0.9 1.7 0.00 0.00 0.00 37 1013.7
20260906000917 96 337 0.0 1.7 0.00 0.00 0.00 37 1013.6
20260906000412 96 309 0.0 0.9 0.00 0.00 0.00 36 1013.5
20260905235907 96 300 0.9 0.9 0.00 0.00 0.00 36 1013.6
20260905235401 97 297 0.0 0.0 0.00 0.00 0.00 35 1013.6
20260905234856 97 44 0.0 0.9 0.00 0.00 0.00 34 1013.7
20260905234351 98 63 0.0 1.7 0.00 0.00 0.00 32 1013.5
20260905233846 100 328 0.0 1.7 0.00 0.00 0.00 31 1013.5
20260905233341 101 321 0.0 1.7 0.00 0.00 0.00 29 1013.8
20260905232840 102 245 0.9 0.9 0.00 0.00 0.00 29 1013.6
20260905232337 103 0 0.0 3.5 0.00 0.00 0.00 30 1013.5
20260905231832 104 297 0.0 1.7 0.00 0.00 0.00 28 1013.8
20260905231327 103 45 0.9 2.6 0.00 0.00 0.00 28 1013.8
20260905230823 104 191 0.0 2.6 0.00 0.00 0.00 28 1013.5
20260905230321 104 251 0.0 2.6 0.00 0.00 0.00 28 1013.7
20260905225821 104 71 0.9 2.6 0.00 0.00 0.00 27 1013.5
20260905225316 105 234 1.7 1.7 0.00 0.00 0.00 27 1013.7
20260905224816 104 21 0.9 1.7 0.00 0.00 0.00 26 1013.5
20260905224311 104 328 1.7 4.3 0.00 0.00 0.00 28 1013.6
20260905223806 105 225 0.0 2.6 0.00 0.00 0.00 27 1013.6
20260905223304 105 219 0.0 1.7 0.00 0.00 0.00 26 1013.5
20260905222759 105 0 0.0 1.7 0.00 0.00 0.00 27 1013.4
20260905222258 105 144 2.6 4.3 0.00 0.00 0.00 27 1013.4
20260905221754 105 198 0.0 3.5 0.00 0.00 0.00 26 1013.4
20260905221250 105 254 3.5 3.5 0.00 0.00 0.00 27 1013.4
20260905220746 106 242 0.0 2.6 0.00 0.00 0.00 26 1013.5
20260905220242 106 109 0.9 2.6 0.00 0.00 0.00 26 1013.4
20260905215741 107 52 1.7 2.6 0.00 0.00 0.00 26 1013.3
20260905215237 107 173 0.9 1.7 0.00 0.00 0.00 27 1013.4
20260905214733 106 186 0.0 7.0 0.00 0.00 0.00 27 1013.4
20260905214228 105 279 0.0 1.7 0.00 0.00 0.00 28 1013.4
20260905213723 105 5 0.0 1.7 0.00 0.00 0.00 28 1013.4
20260905213220 105 19 0.9 3.5 0.00 0.00 0.00 28 1013.5
20260905212715 106 9 1.7 2.6 0.00 0.00 0.00 28 1013.4
20260905212214 105 154 0.9 2.6 0.00 0.00 0.00 29 1013.5
20260905211713 105 336 0.9 2.6 0.00 0.00 0.00 29 1013.4
20260905211209 104 282 1.7 1.7 0.00 0.00 0.00 30 1013.6
20260905210706 103 105 1.7 2.6 0.00 0.00 0.00 30 1013.7
20260905210205 105 98 0.0 2.6 0.00 0.00 0.00 29 1013.8
20260905205705 106 62 0.0 1.7 0.00 0.00 0.00 29 1013.8
20260905205205 105 331 0.9 1.7 0.00 0.00 0.00 30 1013.8
20260905204705 105 304 0.0 2.6 0.00 0.00 0.00 30 1014.0
20260905204200 105 333 0.9 2.6 0.00 0.00 0.00 29 1014.0
20260905203654 105 95 0.0 1.7 0.00 0.00 0.00 30 1014.0
20260905203150 104 226 2.6 3.5 0.00 0.00 0.00 30 1014.3
20260905202645 104 71 0.0 3.5 0.00 0.00 0.00 31 1014.6
20260905202140 104 158 0.0 1.7 0.00 0.00 0.00 31 1014.5
20260905201636 105 76 0.9 1.7 0.00 0.00 0.00 31 1014.6
20260905201136 105 104 0.9 3.5 0.00 0.00 0.00 31 1014.6
20260905200631 105 353 1.7 4.3 0.00 0.00 0.00 31 1014.6
20260905200127 105 66 2.6 3.5 0.00 0.00 0.00 30 1014.9
20260905195625 104 37 0.0 2.6 0.00 0.00 0.00 32 1014.8
20260905195120 104 288 1.7 2.6 0.00 0.00 0.00 32 1015.0
20260905194620 101 180 0.0 1.7 0.00 0.00 0.00 34 1014.9
20260905194120 101 315 0.0 1.7 0.00 0.00 0.00 34 1015.0
20260905193615 102 206 0.9 5.2 0.00 0.00 0.00 33 1015.0
20260905193109 103 238 7.8 7.8 0.00 0.00 0.00 32 1015.1
20260905192605 102 207 3.5 3.5 0.00 0.00 0.00 33 1015.1
20260905192101 102 15 1.7 1.7 0.00 0.00 0.00 33 1015.1
20260905191600 103 246 1.7 1.7 0.00 0.00 0.00 32 1015.2
20260905191059 103 318 0.0 3.5 0.00 0.00 0.00 33 1015.2
20260905190557 103 202 1.7 4.3 0.00 0.00 0.00 32 1015.4
20260905190056 102 231 3.5 4.3 0.00 0.00 0.00 33 1015.3
20260905185556 101 170 0.9 3.5 0.00 0.00 0.00 34 1015.6
20260905185056 99 87 0.9 1.7 0.00 0.00 0.00 36 1015.6
20260905184551 101 180 1.7 5.2 0.00 0.00 0.00 35 1015.5
20260905184050 103 276 3.5 6.1 0.00 0.00 0.00 32 1015.7
20260905183549 102 336 1.7 2.6 0.00 0.00 0.00 34 1015.7
20260905183045 98 205 0.0 2.6 0.00 0.00 0.00 37 1015.8
20260905182545 99 214 0.0 6.1 0.00 0.00 0.00 37 1016.0
20260905182044 100 311 1.7 2.6 0.00 0.00 0.00 37 1016.0
20260905181539 101 249 1.7 2.6 0.00 0.00 0.00 35 1016.0
20260905181038 101 122 0.0 3.5 0.00 0.00 0.00 35 1015.9
20260905180533 100 98 0.0 3.5 0.00 0.00 0.00 36 1015.9
20260905180029 99 280 2.6 4.3 0.00 0.00 0.00 36 1016.0
20260905175527 100 54 1.7 2.6 0.00 0.00 0.00 35 1016.0
20260905175023 100 112 1.7 5.2 0.00 0.00 0.00 35 1016.0
20260905174519 101 262 3.5 7.0 0.00 0.00 0.00 35 1016.1
20260905174014 101 242 0.0 3.5 0.00 0.00 0.00 35 1016.4
20260905173510 100 276 1.7 6.1 0.00 0.00 0.00 36 1016.1
20260905173006 101 143 0.9 5.2 0.00 0.00 0.00 35 1016.3
20260905172503 101 290 0.0 3.5 0.00 0.00 0.00 36 1016.4
20260905172000 100 192 0.9 4.3 0.00 0.00 0.00 36 1016.3
20260905171456 100 239 1.7 4.3 0.00 0.00 0.00 37 1016.5
20260905170952 100 107 0.9 4.3 0.00 0.00 0.00 36 1016.3
20260905170448 101 274 3.5 3.5 0.00 0.00 0.00 36 1016.5
20260905165948 99 142 0.0 1.7 0.00 0.00 0.00 38 1016.5
20260905165443 99 300 2.6 2.6 0.00 0.00 0.00 38 1016.5
20260905164938 98 237 1.7 3.5 0.00 0.00 0.00 38 1016.3
20260905164438 99 292 2.6 5.2 0.00 0.00 0.00 38 1016.3
20260905163932 98 277 1.7 2.6 0.00 0.00 0.00 39 1016.4
20260905163429 97 34 0.9 2.6 0.00 0.00 0.00 40 1016.4
20260905162925 97 223 1.7 2.6 0.00 0.00 0.00 41 1016.4
20260905162420 95 265 3.5 5.2 0.00 0.00 0.00 42 1016.5
20260905161915 96 282 4.3 5.2 0.00 0.00 0.00 41 1016.3
20260905161414 96 202 4.3 7.0 0.00 0.00 0.00 40 1016.4
20260905160912 96 44 1.7 2.6 0.00 0.00 0.00 41 1016.5
20260905160407 96 28 1.7 4.3 0.00 0.00 0.00 42 1016.6
20260905155907 95 231 3.5 3.5 0.00 0.00 0.00 43 1016.3
20260905155406 94 249 2.6 4.3 0.00 0.00 0.00 44 1016.3
20260905154905 94 252 0.9 4.3 0.00 0.00 0.00 44 1016.3
20260905154401 93 184 1.7 4.3 0.00 0.00 0.00 45 1016.1
20260905153856 94 200 0.9 3.5 0.00 0.00 0.00 44 1016.5
20260905153353 92 339 0.0 3.5 0.00 0.00 0.00 46 1016.3
20260905152852 92 235 1.7 7.0 0.00 0.00 0.00 46 1016.4
20260905152351 92 217 1.7 5.2 0.00 0.00 0.00 47 1016.2
20260905151847 91 167 0.9 3.5 0.00 0.00 0.00 47 1016.2
20260905151343 91 218 1.7 3.5 0.00 0.00 0.00 48 1016.3
20260905150843 90 201 3.5 5.2 0.00 0.00 0.00 49 1016.1
20260905150337 90 231 1.7 4.3 0.00 0.00 0.00 50 1016.2
20260905145835 89 284 1.7 6.1 0.00 0.00 0.00 51 1016.1
20260905145334 89 194 1.7 3.5 0.00 0.00 0.00 50 1016.1
20260905144833 88 173 1.7 5.2 0.00 0.00 0.00 52 1016.0
20260905144329 88 237 5.2 5.2 0.00 0.00 0.00 53 1016.0
20260905143827 87 209 2.6 5.2 0.00 0.00 0.00 54 1015.8
20260905143322 87 183 0.9 8.7 0.00 0.00 0.00 54 1016.2
20260905142821 86 182 0.0 5.2 0.00 0.00 0.00 55 1015.9
20260905142315 85 268 1.7 4.3 0.00 0.00 0.00 56 1015.9
20260905141812 85 281 0.9 3.5 0.00 0.00 0.00 57 1015.6
20260905141307 85 209 2.6 5.2 0.00 0.00 0.00 57 1015.8
20260905140802 84 300 1.7 3.5 0.00 0.00 0.00 58 1016.0
20260905140302 84 129 1.7 3.5 0.00 0.00 0.00 58 1015.5
20260905135801 83 45 1.7 3.5 0.00 0.00 0.00 60 1015.8
20260905135257 83 173 0.0 4.3 0.00 0.00 0.00 60 1015.8
20260905134758 82 249 0.9 2.6 0.00 0.00 0.00 61 1016.0
20260905134256 82 241 3.5 3.5 0.00 0.00 0.00 62 1015.9
20260905133751 81 217 0.0 3.5 0.00 0.00 0.00 62 1015.8
20260905133246 81 346 0.0 2.6 0.00 0.00 0.00 64 1015.7
20260905132745 80 161 0.0 3.5 0.00 0.00 0.00 64 1015.7
20260905132242 80 139 0.0 2.6 0.00 0.00 0.00 65 1015.8
20260905131742 80 302 0.0 1.7 0.00 0.00 0.00 66 1015.5
20260905131238 79 278 0.0 1.7 0.00 0.00 0.00 66 1015.7
20260905130738 79 37 0.0 1.7 0.00 0.00 0.00 67 1015.8
20260905130237 78 353 0.0 1.7 0.00 0.00 0.00 68 1015.4
20260905125732 78 301 0.0 1.7 0.00 0.00 0.00 69 1015.4
20260905125227 77 343 0.0 1.7 0.00 0.00 0.00 70 1015.4
20260905124724 77 328 0.0 0.9 0.00 0.00 0.00 70 1015.4
20260905124219 77 322 0.0 0.9 0.00 0.00 0.00 70 1015.1
20260905123714 77 343 0.0 1.7 0.00 0.00 0.00 71 1015.4
20260905123211 76 317 0.0 0.0 0.00 0.00 0.00 72 1015.2
20260905122710 76 18 0.0 1.7 0.00 0.00 0.00 72 1015.3
20260905122205 76 320 0.9 0.9 0.00 0.00 0.00 72 1015.3
20260905121700 76 19 0.0 0.9 0.00 0.00 0.00 72 1015.1
20260905121156 76 341 0.0 0.0 0.00 0.00 0.00 72 1015.1
20260905120655 76 333 0.0 0.9 0.00 0.00 0.00 72 1015.1
20260905120150 76 50 0.0 0.0 0.00 0.00 0.00 71 1015.2
20260905115649 76 297 0.0 0.0 0.00 0.00 0.00 71 1015.2
20260905115145 76 242 0.0 1.7 0.00 0.00 0.00 71 1015.2
20260905114644 76 304 0.0 0.9 0.00 0.00 0.00 71 1015.0
20260905114142 76 295 0.0 0.9 0.00 0.00 0.00 71 1015.1
20260905113637 76 309 0.0 0.9 0.00 0.00 0.00 71 1015.0
20260905113133 76 343 0.0 0.9 0.00 0.00 0.00 71 1014.9
20260905112627 76 339 0.9 1.7 0.00 0.00 0.00 71 1015.0
20260905112124 76 316 0.0 0.9 0.00 0.00 0.00 71 1015.0
20260905111624 76 322 0.0 0.9 0.00 0.00 0.00 70 1015.0
20260905111123 77 324 0.0 0.9 0.00 0.00 0.00 70 1015.2
20260905110622 77 317 0.0 0.9 0.00 0.00 0.00 70 1014.9
20260905110117 77 269 0.0 0.9 0.00 0.00 0.00 70 1015.1
20260905105617 77 296 0.0 1.7 0.00 0.00 0.00 69 1014.9
20260905105116 77 22 0.0 0.9 0.00 0.00 0.00 69 1014.9
20260905104612 78 327 0.9 1.7 0.00 0.00 0.00 68 1015.1
20260905104107 78 309 0.0 1.7 0.00 0.00 0.00 68 1015.0
20260905103602 78 169 0.0 0.9 0.00 0.00 0.00 68 1015.0
20260905103059 78 256 0.0 0.9 0.00 0.00 0.00 68 1015.0
20260905102554 78 328 0.9 1.7 0.00 0.00 0.00 68 1014.9
20260905102050 78 353 0.0 1.7 0.00 0.00 0.00 68 1015.1
20260905101548 78 229 0.0 1.7 0.00 0.00 0.00 67 1015.3
20260905101047 78 287 0.0 2.6 0.00 0.00 0.00 68 1015.2
20260905100544 78 237 1.7 1.7 0.00 0.00 0.00 68 1015.1
20260905100043 78 230 0.0 1.7 0.00 0.00 0.00 69 1015.3
20260905095537 77 326 0.0 1.7 0.00 0.00 0.00 69 1015.1
20260905095033 77 336 0.0 1.7 0.00 0.00 0.00 69 1015.4
20260905094528 77 316 0.0 1.7 0.00 0.00 0.00 69 1015.1
20260905094027 77 333 0.0 0.9 0.00 0.00 0.00 70 1015.1
20260905093521 77 333 0.0 0.9 0.00 0.00 0.00 69 1015.5
20260905093019 77 326 0.0 1.7 0.00 0.00 0.00 69 1015.5
20260905092518 77 352 0.0 0.9 0.00 0.00 0.00 69 1015.5
20260905092014 78 333 0.0 0.9 0.00 0.00 0.00 68 1015.3
20260905091513 78 324 0.9 0.9 0.00 0.00 0.00 68 1015.4
20260905091008 78 326 0.0 0.9 0.00 0.00 0.00 68 1015.4
20260905090502 78 310 0.0 0.9 0.00 0.00 0.00 67 1015.6
20260905090002 78 347 0.0 0.9 0.00 0.00 0.00 67 1015.5
20260905085501 79 283 0.0 0.9 0.00 0.00 0.00 66 1015.4
20260905084957 79 343 0.0 0.9 0.00 0.00 0.00 66 1015.4
20260905084456 79 313 0.0 1.7 0.00 0.00 0.00 65 1015.4
20260905083951 79 286 0.9 1.7 0.00 0.00 0.00 65 1015.5
20260905083447 80 320 0.0 0.9 0.00 0.00 0.00 65 1015.4
20260905082942 80 287 0.9 2.6 0.00 0.00 0.00 64 1015.3
20260905082438 80 275 0.9 1.7 0.00 0.00 0.00 64 1015.3
20260905081933 80 269 0.0 0.9 0.00 0.00 0.00 64 1015.5
20260905081434 80 49 0.9 1.7 0.00 0.00 0.00 64 1015.5
20260905080932 80 337 0.0 0.9 0.00 0.00 0.00 64 1015.2
20260905080427 80 268 0.0 1.7 0.00 0.00 0.00 63 1015.4
20260905075926 80 322 0.0 1.7 0.00 0.00 0.00 63 1015.4
20260905075421 81 193 0.0 1.7 0.00 0.00 0.00 63 1015.4
20260905074920 81 332 0.0 1.7 0.00 0.00 0.00 62 1015.2
20260905074416 81 240 1.7 1.7 0.00 0.00 0.00 62 1015.4
20260905073911 81 327 0.0 1.7 0.00 0.00 0.00 62 1015.3
20260905073407 81 239 1.7 1.7 0.00 0.00 0.00 62 1015.2
20260905072902 81 314 0.0 2.6 0.00 0.00 0.00 62 1015.2
20260905072356 81 317 0.0 1.7 0.00 0.00 0.00 62 1015.3
20260905071853 81 1 0.0 1.7 0.00 0.00 0.00 62 1015.0
20260905071349 81 22 1.7 1.7 0.00 0.00 0.00 63 1015.1
20260905070849 81 321 0.0 1.7 0.00 0.00 0.00 63 1015.1
20260905070345 81 37 0.0 1.7 0.00 0.00 0.00 63 1014.9
20260905065844 81 317 0.0 1.7 0.00 0.00 0.00 63 1015.3
20260905065343 81 337 0.9 1.7 0.00 0.00 0.00 63 1014.9
20260905064838 81 28 0.0 1.7 0.00 0.00 0.00 63 1015.2
20260905064334 81 328 0.9 1.7 0.00 0.00 0.00 64 1014.9
20260905063832 81 48 0.0 1.7 0.00 0.00 0.00 64 1014.9
20260905063328 81 41 1.7 1.7 0.00 0.00 0.00 64 1014.9
20260905062825 81 12 0.0 1.7 0.00 0.00 0.00 64 1014.7
20260905062325 81 35 0.0 1.7 0.00 0.00 0.00 64 1014.8
20260905061820 81 10 0.0 1.7 0.00 0.00 0.00 63 1014.6
20260905061319 81 343 0.0 1.7 0.00 0.00 0.00 64 1014.7
20260905060814 81 35 1.7 1.7 0.00 0.00 0.00 63 1014.7
20260905060311 81 15 0.9 1.7 0.00 0.00 0.00 63 1014.7
20260905055809 81 15 0.0 0.9 0.00 0.00 0.00 63 1014.8
20260905055306 81 19 0.9 0.9 0.00 0.00 0.00 63 1014.9
20260905054805 81 359 0.9 0.9 0.00 0.00 0.00 63 1014.9
20260905054302 81 35 0.9 1.7 0.00 0.00 0.00 63 1014.7
20260905053800 81 35 0.0 1.7 0.00 0.00 0.00 63 1014.7
20260905053256 82 5 0.0 0.9 0.00 0.00 0.00 63 1014.8
20260905052755 82 33 0.0 1.7 0.00 0.00 0.00 63 1014.7
20260905052250 82 21 0.0 1.7 0.00 0.00 0.00 62 1014.7
20260905051750 82 15 0.0 0.9 0.00 0.00 0.00 62 1014.6
20260905051247 82 49 0.0 0.9 0.00 0.00 0.00 62 1014.8
20260905050743 82 11 0.0 0.9 0.00 0.00 0.00 62 1014.9
20260905050239 82 44 0.0 0.9 0.00 0.00 0.00 62 1014.9